Location: Leverkusen
(51.0459°N, 7.0192°E)
Time: 19:14:14
(UTC+01:00)

ISS - Pass Details

Date: 31 January 2019
Orbit: 403 x 411 km, 51.6° (Epoch: 20 February)

Event Time Altitude Azimuth Distance (km) Brightness Sun altitude
Rises 19:45:12 0° 278° (W) 2,339 1.5 -22.7°
Reaches altitude 10° 19:47:17 10° 279° (W) 1,479 0.1 -23.0°
Enters shadow 19:49:38 43° 283° (WNW) 589 -2.6 -23.4°
